Home   Weather   Pali   Past weeks

Flag for India Past Weather in Pali, Rajasthan, India — Yesterday and Last 2 Weeks

77 °F


Feels Like: 78 °F
Forecast: 69 / 92 °F
Wind: 3 mph from Northwest

Location: Jaipur / Sanganer

Current Time: Oct 26, 2016 at 2:34:39 AM

Latest Report: Oct 26, 2016 at 1:00 AM

Visibility: 2 mi

Pressure: 29.89 "Hg

Humidity: 44%

Dew Point: 54 °F

Location of PaliLocation

Past Weather in Pali — Graph


Pali Temperature Yesterday

Maximum temperature yesterday: 90 °F (at 1:30 PM)
Minimum temperature yesterday: 73 °F (at 7:00 AM)
Average temperature yesterday: 81 °F

High & Low Weather Summary for the Past Weeks

High95 °F (Oct 15, 2:00 PM)74% (Oct 11, 1:00 AM)30.01 "Hg (Oct 11, 1:00 AM)
Low66 °F (Oct 18, 6:00 AM)15% (Oct 15, 3:00 PM)29.77 "Hg (Oct 11, 2:30 PM)
Average83 °F34%29.87 "Hg
* Reported Oct 11 1:00 AM — Oct 26 1:00 AM, Pali, Weather by CustomWeather, © 2016

Note: Actual official high and low records may vary slightly from our data, if they occured in-between our weather recording intervals... More about our weather records


Pali Weather History for the Previous 24 Hours

Scroll right to see more
Time TempWeatherWind HumidityBarometerVisibility
1:00 AM
Wed, Oct 26
77 °FHaze.3 mph44%29.89 "Hg2 mi
12:00 AM75 °FHaze.No wind50%29.89 "Hg2 mi
11:30 PM
Tue, Oct 25
75 °FHaze.No wind50%29.89 "Hg2 mi
11:00 PM75 °FHaze.No wind50%29.89 "Hg2 mi
10:30 PM77 °FHaze.No wind47%29.89 "Hg2 mi
10:00 PM77 °FHaze.1 mph44%29.89 "Hg3 mi
9:30 PM77 °FHaze.No wind44%29.89 "Hg3 mi
9:00 PM81 °FHaze.1 mph39%29.89 "Hg3 mi
8:30 PM79 °FHaze.1 mph42%29.89 "Hg3 mi
8:00 PM81 °FHaze.2 mph39%29.89 "Hg3 mi
7:30 PM82 °FHaze.2 mph35%29.86 "Hg3 mi
7:00 PM81 °FHaze.3 mph37%29.86 "Hg3 mi
6:30 PM84 °FHaze.52 mph33%29.83 "Hg3 mi
6:00 PM82 °FHaze.6 mph32%29.83 "Hg3 mi
5:30 PM86 °FHaze.6 mph29%29.83 "Hg3 mi
5:00 PM88 °FHaze.3 mph27%29.83 "Hg3 mi
4:00 PM90 °FHaze.6 mph24%29.83 "Hg3 mi
3:00 PM90 °FHaze.9 mph26%29.83 "Hg3 mi
2:30 PM90 °FHaze.6 mph26%29.86 "Hg3 mi
2:00 PM90 °FHaze.9 mph26%29.86 "Hg3 mi
1:30 PM90 °FHaze.8 mph26%29.86 "Hg3 mi
1:00 PM88 °FHaze.8 mph29%29.89 "Hg3 mi
12:30 PM88 °FHaze.8 mph29%29.89 "Hg3 mi
12:00 PM86 °FHaze.8 mph33%29.92 "Hg3 mi
11:30 AM86 °FHaze.10 mph33%29.92 "Hg3 mi
11:00 AM84 °FHaze.9 mph37%29.92 "Hg3 mi
10:30 AM84 °FHaze.8 mph37%29.95 "Hg3 mi
10:00 AM81 °FHaze.9 mph39%29.92 "Hg3 mi
9:30 AM81 °FHaze.9 mph39%29.92 "Hg3 mi
9:00 AM79 °FHaze.7 mph42%29.92 "Hg3 mi
8:30 AM77 °FHaze.9 mph44%29.92 "Hg3 mi
8:00 AM75 °FHaze.7 mph47%29.89 "Hg3 mi
7:00 AM73 °FHaze.6 mph47%29.89 "Hg3 mi
6:00 AM75 °FHaze.8 mph44%29.86 "Hg3 mi
5:30 AM75 °FHaze.7 mph44%29.86 "Hg3 mi
5:00 AM75 °FHaze.7 mph44%29.83 "Hg3 mi
4:00 AM77 °FHaze.6 mph44%29.83 "Hg3 mi
2:00 AM77 °FHaze.5 mph44%29.86 "Hg3 mi
Weather by CustomWeather, © 2016

See weather overviewHow to use our weather pages